Location: Iesi
(43.5167°N, 13.2333°E)
Time: 03:39:41
(UTC+00:00)

Cosmos 1697 Rocket - Pass Details

Date: 08 August 2020
Orbit: 833 x 842 km, 71.0° (Epoch: 27 September)

Event Time Altitude Azimuth Distance (km) Brightness Sun altitude
Rises 19:09:07 0° 340° (NNW) 3,390 6.8 -8.7°
Reaches altitude 10° 19:11:44 10° 348° (NNW) 2,452 5.8 -9.1°
Maximum altitude 19:16:59 39° 57° (ENE) 1,226 3.4 -9.9°
Enters shadow 19:21:27 14° 123° (ESE) 2,183 4.2 -10.6°
